[[{"header":{"parameterUnit":"m.s-1","parameterCategory":1,"la1":30.2992,"la2":30.254,"lo1":-89.0895,"lo2":-89.0443,"dy":0.0025,"dx":0.0025,"nx":19,"ny":19,"refTime":"2026-04-13T09:00:00:Z","depth":0,"parameterNumber":2,"parameterNumberName":"U-component_of_WINDS"},"data":[0,0,0,-4.792,-4.7924,-4.8077,-4.8078,-4.8276,-4.8278,0,0,0,0,0,0,0,0,0,0,0,-4.7877,-4.7879,-4.792,-4.7924,-4.8077,-4.8078,-4.8276,-4.8278,0,0,0,0,0,0,0,0,0,0,0,-4.7877,-4.7878,-4.788,-4.7925,-4.8077,-4.8078,-4.8275,-4.8158,0,0,0,0,0,0,0,0,0,0,-4.8009,-4.7972,-4.7878,-4.788,-4.7925,-4.8077,-4.8078,-4.8153,-4.8166,-4.8208,0,-4.8247,0,-4.8266,-4.8291,-4.8292,0,0,0,-4.7922,-4.7961,-4.8001,-4.788,-4.7927,-4.8077,-4.8007,-4.816,-4.8175,-4.8225,-4.825,-4.8257,-4.8269,-4.8293,-4.8294,-4.8547,-4.8548,0,0,-4.7913,-4.7906,-4.799,-4.801,-4.7988,-4.8003,-4.8012,-4.8169,-4.8195,-4.8251,-4.8262,-4.8272,-4.8294,-4.8296,-4.8545,-4.8547,0,0,0,-4.789,-4.79,-4.7935,-4.8002,-4.803,-4.8007,-4.8018,-4.8188,-4.82,-4.8264,-4.8275,-4.8295,-4.8298,-4.8544,-4.8546,-4.8601,0,0,0,-4.7885,-4.7887,-4.7932,-4.7929,-4.8027,-4.8111,-4.8034,-4.8189,-4.8207,-4.8274,-4.8295,-4.83,-4.8543,-4.8545,-4.8597,-4.8627,0,0,0,-4.7866,-4.7884,-4.7908,-4.7928,-4.7994,-4.8109,-4.813,-4.8193,-4.8214,-4.8292,-4.83,-4.8542,-4.8545,-4.8593,-4.8621,-4.869,0,0,0,-4.7844,-4.7955,-4.7908,-4.8037,-4.7993,-4.8143,-4.8129,-4.8241,-4.8315,-4.8296,-4.8543,-4.8546,-4.8591,-4.8617,-4.8686,-4.8745,-4.877,0,0,-4.7979,-4.7971,-4.8047,-4.801,-4.8166,-4.812,-4.8285,-4.8359,-4.8373,-4.8487,-4.8494,-4.8598,-4.862,-4.8689,-4.8918,-4.8937,0,0,0,-4.8087,-4.8141,-4.8184,-4.8255,-4.8316,-4.8369,-4.842,-4.8448,-4.8546,-4.8431,-4.8644,-4.8657,-4.8698,-4.8726,-4.8743,-4.8777,-4.856,-4.8559,-4.8559,-4.8266,-4.8279,-4.8405,-4.8437,-4.8506,-4.8558,-4.8614,-4.866,-4.8652,-4.8703,-4.8735,-4.8873,-4.8906,-4.8919,-4.8954,-4.8771,-4.8771,-4.8771,-4.8771,-4.8463,-4.8541,-4.853,-4.8648,-4.8662,-4.8761,-4.8815,-4.8807,-4.89,-4.8849,-4.8885,-4.8825,-4.894,-4.8971,-4.8776,-4.8775,-4.8774,-4.8774,-4.8774,-4.8579,-4.8618,-4.8651,-4.8755,-4.8834,-4.8863,-4.8953,-4.8962,-4.8972,-4.9008,-4.9042,-4.9042,-4.9039,-4.9025,-4.9025,-4.9026,-4.9026,-4.9026,-4.9027,-4.8684,-4.872,-4.8795,-4.887,-4.8917,-4.8979,-4.9034,-4.908,-4.9132,-4.9132,-4.9132,-4.9118,-4.895,-4.8906,-4.9034,-4.9033,-4.9032,-4.9031,-4.9031,-4.8873,-4.8832,-4.8948,-4.8996,-4.9084,-4.9161,-4.9173,-4.9266,-4.9305,-4.9349,-4.9329,-4.9204,-4.9195,-4.9182,-4.9145,-4.9328,-4.9328,-4.9328,-4.9328,-4.8968,-4.8966,-4.9087,-4.9161,-4.9235,-4.9258,-4.9388,-4.9432,-4.947,-4.9495,-4.9471,-4.9424,-4.9411,-4.941,-4.9391,-4.9357,-4.9589,-4.959,-4.959,-4.9084,-4.909,-4.9198,-4.9237,-4.9307,-4.9367,-4.9488,-4.9573,-4.9609,-4.9601,-4.9514,-4.9503,-4.9428,-4.9403,-4.9389,-4.936,-4.9297,0,0]},{"header":{"parameterUnit":"m.s-1","parameterCategory":1,"la1":30.2992,"la2":30.254,"lo1":-89.0895,"lo2":-89.0443,"dy":0.0025,"dx":0.0025,"nx":19,"ny":19,"refTime":"2026-04-13T09:00:00:Z","depth":0,"parameterNumber":3,"parameterNumberName":"V-component_of_WINDS"},"data":[0,0,0,4.068,4.0682,4.0786,4.0787,4.0919,4.092,0,0,0,0,0,0,0,0,0,0,0,4.065,4.0651,4.068,4.0683,4.0786,4.0787,4.0919,4.092,0,0,0,0,0,0,0,0,0,0,0,4.065,4.0651,4.0652,4.0683,4.0786,4.0787,4.0918,4.084,0,0,0,0,0,0,0,0,0,0,4.0739,4.0712,4.065,4.0652,4.0684,4.0786,4.0787,4.0836,4.0845,4.0872,0,4.0897,0,4.0911,4.0929,4.093,0,0,0,4.0682,4.0705,4.0733,4.0652,4.0685,4.0786,4.0739,4.0841,4.0851,4.0884,4.0899,4.0904,4.0913,4.093,4.0931,4.1093,4.1094,0,0,4.0676,4.0668,4.0726,4.0739,4.0724,4.0736,4.0743,4.0847,4.0863,4.09,4.0907,4.0915,4.0931,4.0932,4.1092,4.1093,0,0,0,4.066,4.0664,4.069,4.0734,4.0752,4.0739,4.0747,4.0858,4.0867,4.0908,4.0917,4.0932,4.0933,4.1092,4.1093,4.1126,0,0,0,4.0657,4.0655,4.0687,4.0684,4.0751,4.0807,4.0755,4.086,4.0872,4.0916,4.0932,4.0935,4.1091,4.1092,4.1123,4.1142,0,0,0,4.0643,4.0654,4.0669,4.0683,4.0728,4.0805,4.082,4.0863,4.0877,4.093,4.0935,4.109,4.1092,4.112,4.1138,4.1183,0,0,0,4.0626,4.0695,4.0669,4.0751,4.0727,4.0825,4.082,4.0893,4.0942,4.0932,4.1091,4.1093,4.112,4.1135,4.118,4.1219,4.1235,0,0,4.0709,4.0705,4.0753,4.0733,4.0835,4.081,4.0916,4.0967,4.0978,4.1054,4.1058,4.1124,4.1137,4.1182,4.1327,4.1339,0,0,0,4.0777,4.0812,4.0841,4.0888,4.093,4.0968,4.1004,4.1023,4.1088,4.1016,4.1153,4.1161,4.1188,4.1207,4.1217,4.1241,4.1101,4.1101,4.1101,4.0883,4.0896,4.0977,4.1003,4.1049,4.1087,4.1125,4.1157,4.1154,4.1187,4.1209,4.1295,4.1317,4.1325,4.1349,4.1231,4.1231,4.1231,4.1231,4.1006,4.1058,4.1056,4.1134,4.1146,4.1212,4.1251,4.1248,4.131,4.1279,4.1303,4.1267,4.1338,4.136,4.1234,4.1233,4.1233,4.1233,4.1233,4.1077,4.1104,4.1127,4.1199,4.1252,4.1275,4.1336,4.1345,4.1354,4.1378,4.1403,4.1402,4.1403,4.1389,4.139,4.139,4.139,4.1391,4.1391,4.114,4.1166,4.1217,4.1269,4.1302,4.1346,4.1386,4.1418,4.1456,4.1458,4.1458,4.1453,4.1344,4.1316,4.1395,4.1395,4.1394,4.1394,4.1393,4.1259,4.1234,4.1313,4.1346,4.1409,4.1462,4.1474,4.1539,4.1567,4.1597,4.1587,4.1505,4.1501,4.1492,4.1469,4.1584,4.1584,4.1584,4.1584,4.1318,4.1318,4.1401,4.1454,4.1506,4.1525,4.1614,4.1647,4.1676,4.1694,4.1679,4.165,4.1641,4.1642,4.163,4.1609,4.1757,4.1757,4.1757,4.1393,4.1398,4.1472,4.1502,4.1553,4.1596,4.168,4.174,4.1768,4.1764,4.1709,4.1701,4.1654,4.1638,4.1631,4.1613,4.1574,0,0]}]]